Retour au catalogue

SCOUT G-1 DEB

ActifPO
NORAD 43332·DEBRIS·🇺🇸 United States

Lancé Apr 26, 1988 depuis Vandenberg Space Force Base

Loading…

Prochains Passages (prochaines 24 heures)

TLE

PériméSource: Space-Track

Époque: Aug 28, 2026, 03:51 UTC

1 43332U 88033N   26240.16082522  .00000184  00000-0  32493-3 0  9994
2 43332  90.3233  21.4025 0181252 354.5034   5.4114 13.33832831486136

Suivez SCOUT G-1 DEB en temps réel avec AllMySat

Download on the App Store